Simultaneous Nadir Overpasses (SNOs) Predictions

Prediction of SNOs between NOAA-19 and TERRA Satellite Orbit:

Table of predicted SNOs for the next 14.0 days since TLE Epoch: 3/30/2024
Index Date (NOAA-19) Time (NOAA-19) Lat,Lon (NOAA-19) SZA (NOAA-19 ) Date (TERRA) Time (TERRA) Lat,Lon (TERRA) SZA (TERRA ) Distance(km) Time Diff (sec)
1 03/31/2024 12:48:43 -79.89,-172.26 104.08 03/31/2024 12:49:09 -79.90,-172.21 104.07 1.03 26
2 03/31/2024 13:39:12 80.63, 6.23 77.39 03/31/2024 13:37:59 80.92, 5.18 77.53 37.55 73
3 04/02/2024 16:38:51 79.93, -49.31 75.18 04/02/2024 16:38:36 79.94, -49.30 75.17 0.46 15
4 04/04/2024 19:38:01 79.82, -95.27 74.20 04/04/2024 19:38:45 79.83, -95.14 74.23 2.75 44
5 04/04/2024 20:28:53 -79.92, 73.12 105.66 04/04/2024 20:28:04 -79.92, 73.20 105.66 1.60 49
6 04/06/2024 23:28:01 -79.87, 27.82 106.53 04/06/2024 23:28:11 -79.87, 27.75 106.53 1.43 10
7 04/09/2024 02:27:11 -79.76, -18.13 107.49 04/09/2024 02:28:19 -79.76, -18.14 107.47 0.23 68
8 04/09/2024 03:18:08 79.88, 150.46 72.70 04/09/2024 03:17:37 79.88, 150.43 72.69 0.52 31
9 04/11/2024 06:17:17 79.78, 104.58 71.76 04/11/2024 06:17:44 79.78, 104.66 71.78 1.73 27



Historial Predications of SNOs between NOAA-19 and TERRA
